THOR ABLESTAR DEB, 177

Orbit data source: Space-Track

THOR ABLESTAR DEB, 177 is space debris in LEO originally from a launch on Thu, 29 Jun 1961 UTC launched from the Air Force Eastern Test Range (AFETR). Debris objects in space refer to the collection of defunct objects orbiting the Earth. Examples of debris include non-operational satellites, rocket bodies, and fragments generated from explosions, collisions, or faulty payload assembly.

Loading next visibility...
Identifier
177, 1961-015BB
Orbit
LEO
Country
Flag of USUS
Related business
Manufacturer
Unknown
Mission
Spacecraft
Bus & Motor
Unknown
Mass
Unknown
Launch date (UTC)
1961-06-29 (65 years ago)
Launch vehicle
Unknown
Launch site
Air Force Eastern Test Range (AFETR)
Object type
Payload
Rocket body
Debris
Shape & HBR
Unknown shape, 0.2 m
Radar Cross Section
Medium (>0.1 m² and <1 m²)

Expand to show TLE details & history
Last TLE update: 18 hours ago

TLE from 18 hours ago
0 THOR ABLESTAR DEB
1 00177U 61015BB  26070.43037525  .00000259  00000-0  16800-3 0  9996
2 00177  66.6544  92.8960 0104449 163.2397 197.2188 14.14833247327336
Epoch: 2026-03-11T10:19Z
TLE epoch observation values (Epoch: 2026-03-11T10:19:44.421Z)
Latitude
-0.00007°
Longitude
128.86616°
Altitude
917.087 km
Speed
7.357 km/s
True Right ascension
06h 11m 35s
True Declination
0° 00' 00"
Sunlit
Object was in daylight at epoch
Visualization orbit readout
Latitude
Unknown
Longitude
Unknown
Altitude
Unknown
Speed
Unknown
Apparent Right ascension
Unknown
Apparent Declination
Unknown
Sunlit
N/A
Visualization observer readout
Local Sidereal Time
08:20:24
Azimuth
Unknown
Elevation
Unknown
Doppler factor
Unknown
Orbital elements
Apogee altitude
916.677 km
Perigee altitude
765.865 km
Semi-major axis
7,219.408 km
Eccentricity
0.01044
Inclination
66.6544°
RAAN
92.896°
Arg. of periapsis
163.2397°
True anomaly
196.86886°
Mean anomaly
197.2188°
Eccentric anomaly
197.0434°
Mean motion
3.53827 °/min
Orbital period
101.74 mins
BSTAR
0.000168
Loading maneuver chart data...
Computing Atmospheric mass density...

Documentation

Showing up to 5 results
|